Location: Haliburton Scout Reserve
(45.0900°N, 78.3200°W)
Time: 18:22:55
(UTC-04:00)

STRAND 1 - Pass Details

Date: 28 March 2023
Orbit: 767 x 779 km, 98.4° (Epoch: 06 June)

Event Time Altitude Azimuth Distance (km) Brightness Sun altitude
Rises 20:14:08 0° 12° (NNE) 3,251 ? -7.5°
Reaches altitude 10° 20:16:27 10° 12° (NNE) 2,319 ? -7.9°
Maximum altitude 20:21:34 82° 285° (WNW) 780 ? -8.8°
Drops below altitude 10° 20:26:39 10° 199° (SSW) 2,301 ? -9.6°
Sets 20:28:56 0° 198° (SSW) 3,223 ? -10.0°
